Location: Br�tencourt
(50.2339°N, 2.6990°E)
Time: 15:06:19
(UTC+00:00)

Daily predictions for brighter satellites

Satellite Brightness Start Highest point End
(mag) Time Altitude Azimuth Time Altitude Azimuth Time Altitude Azimuth
Cosmos 2251 Rocket 3.6 19:23:21 10° S 19:28:39 65° ESE 19:33:56 10° NNE
ATLAS 3B R/B 3.2 19:22:38 10° NW 19:29:33 64° SW 19:36:45 10° SSE
Cosmos 2279 Rocket 4.3 19:28:02 10° SSE 19:33:55 48° E 19:39:50 10° NNE
Cosmos 1980 3.8 19:31:57 10° NNW 19:37:41 77° ENE 19:43:21 10° SE
SL-16 R/B 3.2 19:32:56 10° NNW 19:38:07 34° NE 19:43:14 10° ESE
Cosmos 2026 Rocket 4.1 19:32:06 10° N 19:38:13 84° W 19:44:21 10° S
MOS 1 4.3 19:33:41 10° SSE 19:39:18 77° ENE 19:44:59 10° NNW
USA 102 3.7 19:37:39 10° NNE 19:39:31 21° N 20:25:46 10° NNW
SME Rocket 3.6 19:35:50 10° NNE 19:39:42 69° WNW 19:44:42 10° SSW
Cosmos 2151 3.8 19:35:53 10° N 19:39:53 35° ENE 19:43:50 10° SE
Cosmos-2242 4.3 19:36:49 10° SE 19:40:05 21° E 19:43:20 10° NE
USA 215 3.7 19:35:26 10° E 19:41:51 60° NNE 19:48:17 10° WNW
FALCON 9 DEB 4.4 19:41:59 10° S 19:44:11 18° SE 19:46:23 10° E
SPOT 3 Rocket 4.0 19:41:18 10° SE 19:46:14 47° ENE 19:51:12 10° N
Cosmos 1455 2.9 19:44:03 10° SSW 19:47:44 57° WNW 19:51:27 10° N
COSMOS 2455 4.1 19:44:40 10° SSE 19:48:47 20° ESE 19:52:55 10° ENE
ATLAS 5 CENTAUR R/B 4.2 19:47:41 10° WNW 19:51:03 21° NNW 19:54:51 10° NE
SL-4 R/B 3.2 19:47:25 10° SSW 19:51:05 27° SE 19:54:58 10° E
IRS-1A Rocket 4.4 19:46:02 10° SSE 19:51:39 87° WSW 19:57:26 10° NNW
Cosmos 2219 Rocket 3.8 19:47:03 10° NW 19:52:06 33° WSW 19:57:07 10° SSW
USA 186 3.6 19:51:37 10° SSW 19:54:33 31° W 19:57:22 10° NNW
Cosmos 1076 Rocket 3.5 19:51:50 10° N 19:56:13 87° ENE 20:00:31 10° S
COSMOS 2428 4.1 19:51:12 10° NW 19:56:24 37° WSW 20:01:36 10° S
Cosmos 2266 Rocket 4.4 19:50:25 10° N 19:56:36 49° ENE 20:02:36 10° SSE
IGS 5A 3.8 19:54:20 11° SE 19:58:11 47° ENE 20:02:11 10° N
ATLAS 5 CENTAUR R/B 3.3 19:57:20 10° WSW 19:58:18 12° SW 19:59:23 10° SSW
OBJECT-B 2.1 19:56:10 10° S 19:59:15 41° W 20:02:22 10° NNW
Landsat 7 4.2 19:55:13 11° SE 19:59:38 47° ENE 20:04:12 10° N
Cosmos 2292 Rocket 4.3 19:56:00 10° N 20:02:44 86° ENE 20:07:42 10° S
Cosmos 44 4.0 19:58:29 10° SW 20:03:39 64° NW 20:09:03 10° NE
Cosmos 1634 Rocket 4.3 19:57:46 10° SSW 20:04:01 72° WNW 20:10:16 10° N
Cosmos 1356 4.1 20:00:46 10° NNW 20:04:08 53° W 20:07:27 10° S
Cosmos 2344 3.6 19:58:27 10° SW 20:05:54 89° SE 20:14:04 10° NE
ARIANE 5 R/B 3.7 20:04:04 14° ESE 20:07:00 29° ENE 20:10:46 10° N
Cosmos 407 Rocket 3.5 20:02:27 10° S 20:07:27 56° ESE 20:12:32 10° NNE
USA 245 4.1 20:05:59 16° ESE 20:07:50 26° ENE 20:10:22 10° NNE
IRIDIUM 104 4.3 20:06:33 10° S 20:11:45 77° E 20:16:59 10° N
Orbus 7S? 3.6 20:08:46 10° WSW 20:11:46 77° NNW 20:17:43 10° ENE
Cosmos 1023 Rocket 4.5 20:07:34 10° S 20:12:31 56° ESE 20:17:30 10° NNE
Meteor 2-3 Rocket 3.8 20:06:57 10° N 20:12:41 64° ENE 20:17:47 13° SSE
MetOp-B 4.3 20:09:16 13° SSE 20:14:02 61° ENE 20:19:20 10° N
RESURS DK-1 4.1 20:10:57 10° WSW 20:14:49 37° NW 20:18:42 10° NNE
Cosmos 405 Rocket 4.0 20:12:26 10° NNW 20:16:14 42° W 20:19:57 10° SSW
Cosmos 44 Rocket 4.4 20:14:52 10° SSE 20:18:58 25° ESE 20:23:10 10° ENE
Cosmos 1140 Rocket 3.4 20:15:40 10° S 20:20:43 63° ESE 20:25:48 10° NNE
IRIDIUM 114 4.3 20:15:40 10° S 20:20:54 90° W 20:26:10 10° N
Cosmos 1812 Rocket 3.6 20:18:13 10° S 20:22:40 88° W 20:27:11 10° N
CZ-2C R/B 4.0 20:19:47 10° NNE 20:24:04 44° E 20:27:43 13° S
Cosmos 1954 Rocket 4.5 20:20:10 10° S 20:24:54 38° ESE 20:29:40 10° NE
Cosmos 2237 Rocket 2.8 20:19:56 10° NW 20:25:25 54° WSW 20:30:47 10° S
Timation 2 Rocket 4.0 20:21:13 10° SSW 20:27:39 60° ESE 20:33:49 10° NE
Abrixas rocket 2.8 20:27:44 10° WSW 20:28:20 18° WSW 20:28:20 18° WSW
IRIDIUM 103 4.5 20:24:51 10° S 20:30:03 76° W 20:35:19 10° N
Cosmos 2180 Rocket 4.5 20:24:12 10° S 20:30:22 88° WNW 20:36:32 10° N
Cosmos 1818 4.5 20:25:11 10° WSW 20:30:31 53° NW 20:35:54 10° NE
Cosmos 1766 Rocket 3.8 20:29:45 10° N 20:34:01 52° ENE 20:36:22 24° SE
Cosmos 2263 Rocket 4.0 20:34:37 13° E 20:34:37 13° E 20:36:36 10° ENE
BREEZE M DEB (TANK) 2.6 20:26:40 10° WSW 20:34:39 63° SSE 20:36:34 21° E
Spot 2 Rocket 3.7 20:32:07 21° SE 20:35:24 57° ENE 20:40:23 10° N
CARTOSAT-1 4.1 20:33:27 24° SE 20:35:40 43° ENE 20:39:47 10° N
Cosmos 1633 3.4 20:36:51 10° NNW 20:40:19 47° W 20:43:20 13° SSW
Cosmos 482 Debris 3.1 20:38:24 10° WNW 20:40:32 49° N 20:40:38 48° NNE
FALCON 9 DEB 3.0 20:38:08 10° SW 20:41:05 46° SSE 20:41:37 40° ESE
Cosmos 2227 Rocket 2.1 20:36:43 10° SSW 20:42:22 75° ESE 20:48:02 10° NNE
Cosmos 2082 4.0 20:37:22 10° S 20:42:37 42° ESE 20:47:53 10° NE
Okean 3 Rocket 3.6 20:38:41 10° N 20:43:13 65° ENE 20:45:39 26° SSE
Cosmos 1655 Rocket 4.2 20:38:34 10° NNW 20:44:51 72° W 20:50:54 11° S
FALCON 9 DEB 2.7 20:42:42 10° SW 20:45:41 58° SSE 20:46:28 41° E
Lacrosse 5 rocket 2.7 20:42:24 10° NW 20:46:22 37° NNE 20:49:59 13° ENE
CZ-4C R/B 4.5 20:43:04 10° WNW 20:47:57 27° N 20:53:40 10° NE
Cosmos 2297 Rocket 2.3 20:43:23 10° SSW 20:49:02 81° WNW 20:54:45 10° NNE
Cosmos 468 Rocket 4.1 20:44:04 10° NNW 20:49:10 59° ENE 20:51:46 28° SE
Cosmos 1869 3.4 20:47:58 29° SSE 20:49:45 55° E 20:53:38 10° NNE
Resurs 01 Rocket 2.5 20:46:10 11° S 20:50:12 47° W 20:54:32 10° NNW
Genesis I 4.5 20:46:45 10° NW 20:50:26 35° WSW 20:52:33 20° S
Meteor 1-4 Rocket 2.6 20:50:30 39° SE 20:51:22 50° E 20:54:50 10° NNE
NOSS 3-1 (A) 4.4 20:44:35 10° NW 20:51:31 53° NE 20:57:37 19° ESE
ATLAS 2AS CENTAUR R/B 4.3 20:44:43 10° W 20:52:09 42° NNW 20:59:20 10° NE
Cosmos 841 Rocket 4.5 20:49:05 10° N 20:53:51 34° NE 20:56:15 23° ESE
FALCON 9 DEB 2.6 20:54:41 10° WSW 20:57:43 73° SSE 20:58:12 57° E
Cosmos 2219 3.3 20:52:41 10° SW 20:58:18 77° WNW 21:03:58 10° NNE
Cosmos 2084 Rocket 3.2 20:57:22 10° SW 21:01:22 86° NW 21:05:28 10° NE
Cosmos 1763 Rocket 3.4 20:56:57 10° NNW 21:02:02 70° ENE 21:04:17 33° SE
Cosmos 1190 Rocket 4.3 21:00:01 10° SSW 21:05:13 68° WNW 21:10:26 10° NNE
Terra 2.2 21:03:52 32° ESE 21:05:36 48° ENE 21:10:11 10° N
FALCON 9 DEB 3.8 21:02:22 10° W 21:05:44 52° N 21:07:41 22° ENE
Meteor 2-8 Rocket 4.4 21:02:56 17° S 21:07:50 78° E 21:13:59 10° NNE
BREEZE-M DEB (TANK) 3.5 21:07:29 10° W 21:08:46 21° SW 21:08:46 21° SW
Cosmos 540 Rocket 3.9 21:04:47 10° NNW 21:09:45 48° ENE 21:11:41 32° ESE
Cosmos 921 Rocket 4.1 21:07:14 10° N 21:11:13 31° ENE 21:12:21 27° E
NOSS 3-1 (C) 4.0 21:08:14 10° NW 21:15:33 85° NE 21:20:23 29° SE
SPOT 5 2.7 21:14:08 39° SSE 21:15:52 79° ENE 21:20:45 10° NNW
Cosmos-2242 4.1 21:13:12 10° SSW 21:17:21 44° WNW 21:21:29 10° N
SPOT 1/Viking Rocket 4.1 21:14:17 21° S 21:17:39 54° W 21:22:47 10° NNW
Meteor 2-2 Rocket 4.4 21:15:41 33° SSE 21:18:00 54° E 21:23:33 10° NNE
FALCON 9 DEB 3.3 21:16:33 10° WSW 21:18:54 49° WSW 21:18:54 49° WSW
Cosmos 1842 Rocket 3.8 21:20:26 46° SE 21:21:12 52° E 21:25:34 10° NNE
SL-16 R/B 2.7 21:16:58 10° NW 21:22:31 54° WSW 21:25:19 28° S
Cosmos 676 Rocket 4.1 21:18:26 10° SSW 21:23:37 77° WNW 21:28:50 10° NNE
USA 215 3.3 21:21:35 32° SE 21:24:50 70° SW 21:31:24 10° WNW
SL-08 ROCKET BODY 4.4 21:23:20 10° N 21:29:23 66° ENE 21:31:37 39° SE
SL-4 R/B 2.1 21:25:50 10° WSW 21:30:20 78° SSE 21:33:32 20° ENE
Cosmos 1408 Rocket 3.5 21:29:26 10° NNW 21:33:46 76° W 21:34:51 49° S
COSMOS 2455 2.8 21:27:55 10° SW 21:33:57 89° WNW 21:40:02 10° NE
ERS-1 Rocket 3.1 21:33:52 37° S 21:35:48 70° WSW 21:40:51 10° NNW
ATLAS 5 CENTAUR R/B 4.3 21:33:49 10° NW 21:37:25 20° NNE 21:41:27 10° ENE
Cosmos 1862 3.3 21:37:04 10° NNW 21:41:01 75° W 21:41:30 65° SSW
Sich 1 4.0 21:37:28 10° N 21:41:20 32° ENE 21:41:28 32° ENE
Cosmos 1805 Rocket 4.1 21:37:34 10° N 21:41:44 42° ENE 21:41:58 41° E
Cosmos 2221 2.3 21:41:54 64° S 21:42:32 84° E 21:46:51 10° NNE
ARIANE 5 R/B 3.7 21:41:36 26° SW 21:43:22 37° W 21:47:27 10° NNW
Meteor 2-15 Rocket 4.3 21:43:55 34° S 21:46:47 88° E 21:52:54 10° N
Cosmos 1943 3.2 21:42:52 10° NNW 21:48:31 71° ENE 21:50:06 47° SE
Cosmos 1745 Rocket 4.0 21:45:10 10° N 21:51:29 68° ENE 21:53:25 45° SE
Cosmos 1570 Rocket 4.1 21:46:48 10° NNW 21:52:06 68° ENE 21:53:15 52° ESE
Cosmos 1743 Rocket 3.3 21:48:16 10° N 21:52:38 88° WSW 21:53:02 73° S
SeaSat 1 4.0 21:48:44 10° NE 21:51:19 22° E 21:51:19 22° E
NOSS 2-1 (C) 3.9 21:56:12 41° NNE 21:56:12 41° NNE 21:58:42 10° NE
Cosmos 1709 Rocket 4.5 21:50:37 10° N 21:56:35 46° ENE 21:58:09 38° ESE
Cosmos 44 Rocket 3.7 21:55:02 10° SW 22:00:07 66° NW 22:05:21 10° NE
NOSS 2-1 (D) 3.8 22:02:34 45° NNE 22:02:34 45° NNE 22:05:18 10° NE
Cosmos 1633 Rocket 4.3 21:58:28 10° N 22:02:12 28° ENE 22:02:12 28° ENE
TSX-5 4.3 22:01:04 25° SW 22:03:36 63° NW 22:07:24 10° NNE
Cosmos 1606 3.2 22:06:56 54° NNE 22:06:56 54° NNE 22:09:57 10° NNE
BREEZE-M DEB (TANK) 3.9 21:59:45 10° WNW 22:06:19 40° SW 22:06:19 40° SW
Cosmos 1741 Rocket 4.0 22:05:12 44° SSW 22:06:58 85° WNW 22:12:18 10° NNE
S3M 4.0 22:05:25 48° SSE 22:07:10 69° E 22:13:33 10° NNE
Cosmos 1850 Rocket 4.0 22:08:07 41° SW 22:09:59 77° WNW 22:15:16 10° NNE
Cosmos 1500 Rocket 3.8 22:06:14 10° NNW 22:10:39 59° W 22:11:06 55° WSW
Cosmos 1666 Rocket 4.3 22:08:50 10° N 22:12:59 42° ENE 22:12:59 42° ENE
Cosmos 2263 Rocket 2.0 22:16:15 61° S 22:17:08 75° ESE 22:22:43 10° NNE
Aureole 1 Rocket 3.4 22:17:34 49° SW 22:19:03 80° WNW 22:23:30 10° NNE
H-2A R/B 4.2 22:16:17 10° N 22:20:23 50° WNW 22:21:10 43° WSW
Cosmos 1386 Rocket 4.4 22:14:50 10° NNW 22:20:53 80° W 22:22:22 53° S
USA 229 DEB 4.0 22:17:38 10° NW 22:24:50 65° SW 22:27:01 46° S
USA 229 4.0 22:17:43 10° NW 22:24:56 65° SW 22:27:07 47° S
Lacrosse 5 rocket 1.5 22:21:34 10° WNW 22:25:34 76° NW 22:25:34 76° NW
Cosmos 2227 Rocket 4.2 22:22:17 10° W 22:27:01 27° NW 22:31:46 10° NNE
Cosmos 1782 4.5 22:28:48 25° NE 22:28:48 25° NE 22:31:05 10° NNE
Cosmos 1844 Rocket 4.2 22:30:56 22° E 22:30:56 22° E 22:34:01 10° NE
SL-24 DEB 4.3 22:32:22 65° ENE 22:32:22 65° ENE 22:36:47 10° N
Cosmos 2208 Rocket 4.0 22:26:55 10° NNW 22:32:16 73° WSW 22:32:47 67° SSW
Cosmos 1151 Rocket 4.2 22:34:17 34° ENE 22:34:17 34° ENE 22:37:18 10° NNE
ALOS 2 3.4 22:35:37 42° ENE 22:35:37 42° ENE 22:39:35 10° N
Cosmos 1553 Rocket 4.4 22:33:03 34° SW 22:35:33 56° WNW 22:41:36 10° N
Cosmos 841 Rocket 4.1 22:30:57 10° NW 22:35:50 42° WSW 22:36:20 41° WSW
Cosmos 1603 4.0 22:31:39 10° NW 22:37:12 52° WSW 22:37:52 50° SW
CZ-4C R/B 4.4 22:32:53 10° NW 22:38:29 30° NNE 22:45:02 10° ENE
NOSS 3-1 (A) 4.2 22:35:28 10° NW 22:42:47 58° SW 22:45:03 45° S
Terra 3.4 22:42:44 24° WSW 22:43:35 25° W 22:47:31 10° NW
Cosmos 1933 4.0 22:45:09 53° NNE 22:45:09 53° NNE 22:48:20 10° N
Cosmos 921 Rocket 4.3 22:45:32 10° NW 22:49:08 33° W 22:49:08 33° W
Meteor 2-17 Rocket 4.4 22:48:24 10° NNW 22:54:33 74° W 22:55:34 61° SSW
Meteor 1-14 Rocket 4.2 22:57:55 10° N 23:03:57 76° ENE 23:04:37 68° SE
Cosmos 1437 Rocket 4.0 23:05:15 38° NW 23:05:15 38° NW 23:08:07 10° N
SL-4 R/B 2.9 23:05:31 10° W 23:09:09 53° WNW 23:09:09 53° WNW
NOSS 2-2 (C) 4.3 23:08:27 10° NW 23:13:38 86° NE 23:14:35 66° SE
Cosmos 2184 Rocket 4.1 23:07:42 10° N 23:14:01 64° ENE 23:14:58 57° ESE
NOSS 2-2 (E) 4.3 23:09:30 10° NW 23:14:50 83° SW 23:15:39 69° SSE
Cosmos 2315 Rocket 4.1 23:16:01 57° SW 23:17:15 72° WNW 23:23:39 10° N
Cosmos 1515 Rocket 4.4 23:19:41 44° NE 23:19:41 44° NE 23:23:05 10° NNE
Cosmos 1666 4.2 23:17:31 10° N 23:20:00 34° NNE 23:20:00 34° NNE
ATLAS 5 CENTAUR R/B 3.3 23:18:24 10° NW 23:23:20 40° NE 23:27:06 20° E
SeaSat 1 2.7 23:25:45 10° NNE 23:30:38 61° NW 23:31:05 58° W
Cosmos 1470 Rocket 4.2 23:28:42 10° NNW 23:32:15 53° NW 23:32:15 53° NW
Iridium 4 Rocket 3.8 23:38:02 57° W 23:38:05 57° W 23:43:28 10° N
Nimbus 7 Rocket 4.2 23:33:36 10° NNE 23:39:30 80° ESE 23:39:53 76° SSE
Cosmos 1633 Rocket 4.4 23:36:09 10° NNW 23:39:17 31° WNW 23:39:17 31° WNW
Cosmos 2074 Rocket 3.8 23:34:11 10° N 23:40:29 84° W 23:41:12 71° SSW
Cosmos 1844 3.8 23:41:40 64° ESE 23:41:40 64° ESE 23:47:09 10° NE
COSMOS 2406 4.3 23:37:20 10° NNW 23:42:39 39° NE 23:44:55 27° E
Cosmos 1503 Rocket 4.2 23:44:44 62° ENE 23:44:44 62° ENE 23:49:22 10° NNE
USA 281 3.4 23:43:08 46° ESE 23:45:08 67° ENE 23:51:40 10° NNW
Cosmos 1812 4.0 23:48:00 39° N 23:48:00 39° N 23:50:32 10° N
Cosmos 1933 Rocket 4.3 23:44:56 10° NNW 23:48:19 50° NW 23:48:19 50° NW
